KS5S Weather Reports


time (UTC)temp
C
wind
direction
speed
KPH
gust
KPH
rain 1hr
cm
rain 24hr
cm
rain mn
cm
humidity
%
barometer
mb
20260506144618 12 0 6.4 19.3 0.00 0.00 0.00 87 1012.8
20260506144114 12 349 11.3 17.7 0.00 0.00 0.00 86 1012.5
20260506143612 12 310 8.0 14.5 0.00 0.00 0.00 85 1014.0
20260506143110 12 326 6.4 14.5 0.00 0.00 0.00 86 1013.7
20260506142608 12 30 1.6 19.3 0.00 0.00 0.00 86 1013.8
20260506142106 12 322 8.0 19.3 0.00 0.00 0.00 85 1013.0
20260506141603 12 354 8.0 11.3 0.00 0.00 0.00 85 1012.7
20260506141101 12 1 11.3 17.7 0.00 0.00 0.00 85 1011.9
20260506140558 12 357 11.3 22.5 0.00 0.00 0.00 85 1011.5
20260506140056 12 332 6.4 24.1 0.00 0.00 0.00 84 1011.9
20260506135552 13 5 8.0 22.5 0.00 0.00 0.00 83 1011.7
20260506135048 13 354 8.0 17.7 0.00 0.00 0.00 82 1011.7
20260506134545 13 345 9.7 17.7 0.00 0.00 0.00 81 1011.8
20260506134041 13 338 12.9 16.1 0.00 0.00 0.00 81 1011.9
20260506133538 13 330 8.0 17.7 0.00 0.00 0.00 81 1011.5
20260506133035 13 20 17.7 24.1 0.00 0.00 0.00 80 1011.3
20260506132533 13 349 6.4 19.3 0.00 0.00 0.00 80 1011.5
20260506132030 13 0 9.7 17.7 0.00 0.00 0.00 79 1011.1
20260506131527 13 25 12.9 29.0 0.00 0.00 0.00 79 1010.9
20260506131023 13 1 8.0 19.3 0.00 0.00 0.00 79 1010.8
20260506130520 13 8 12.9 24.1 0.00 0.00 0.00 79 1010.6
20260506130018 13 23 16.1 24.1 0.00 0.00 0.00 80 1010.5
20260506125516 13 9 14.5 27.4 0.00 0.00 0.00 81 1010.5
20260506125013 13 348 4.8 22.5 0.00 0.00 0.00 81 1010.8
20260506124511 13 0 9.7 17.7 0.00 0.00 0.00 81 1010.4
20260506124009 13 0 8.0 17.7 0.00 0.00 0.00 80 1010.6
20260506123506 13 331 12.9 22.5 0.00 0.00 0.00 80 1010.5
20260506123004 13 4 9.7 20.9 0.00 0.00 0.00 80 1010.4
20260506122501 13 351 6.4 14.5 0.00 0.00 0.00 81 1010.2
20260506121959 13 13 12.9 20.9 0.00 0.00 0.00 82 1010.4
20260506121456 13 0 9.7 27.4 0.00 0.00 0.00 81 1010.1
20260506120952 13 27 8.0 20.9 0.00 0.00 0.00 81 1010.0
20260506120450 13 10 12.9 19.3 0.00 0.00 0.00 81 1010.2
20260506115947 14 13 8.0 24.1 0.00 0.00 0.00 81 1010.1
20260506115445 14 15 9.7 14.5 0.00 0.00 0.00 81 1009.8
20260506114943 14 357 6.4 19.3 0.00 0.00 0.00 81 1010.0
20260506114440 14 22 3.2 17.7 0.00 0.00 0.00 81 1010.1
20260506113939 14 337 8.0 11.3 0.00 0.00 0.00 82 1009.8
20260506113436 14 7 4.8 11.3 0.00 0.00 0.00 82 1009.8
20260506112932 14 5 12.9 25.7 0.00 0.00 0.00 82 1009.6
20260506112430 14 316 1.6 19.3 0.00 0.00 0.00 82 1009.6
20260506111927 14 1 6.4 20.9 0.00 0.00 0.00 82 1009.6
20260506111425 15 348 12.9 22.5 0.00 0.00 0.00 82 1009.6
20260506110922 15 334 6.4 16.1 0.00 0.00 0.00 82 1009.4
20260506110420 15 0 8.0 22.5 0.00 0.00 0.00 82 1009.2
20260506105916 15 307 8.0 19.3 0.00 0.00 0.00 82 1009.1
20260506105413 15 31 4.8 22.5 0.00 0.00 0.00 82 1009.3
20260506104910 15 0 8.0 9.7 0.00 0.00 0.00 81 1008.9
20260506104408 15 7 6.4 11.3 0.00 0.00 0.00 81 1008.8
20260506103906 15 355 4.8 9.7 0.00 0.00 0.00 80 1009.1
20260506103403 15 320 4.8 17.7 0.00 0.00 0.00 80 1008.8
20260506102900 15 288 3.2 12.9 0.00 0.00 0.00 81 1008.7
20260506102358 15 1 6.4 11.3 0.00 0.00 0.00 81 1008.7
20260506101855 15 359 6.4 19.3 0.00 0.00 0.00 81 1008.5
20260506101351 15 329 4.8 14.5 0.00 0.00 0.00 81 1008.6
20260506100849 16 353 4.8 12.9 0.00 0.00 0.00 80 1008.5
20260506100347 16 343 4.8 12.9 0.00 0.00 0.00 80 1008.3
20260506095845 16 21 8.0 16.1 0.00 0.00 0.00 80 1008.0
20260506095342 16 321 4.8 8.0 0.00 0.00 0.00 80 1008.3
20260506094838 16 314 3.2 9.7 0.00 0.00 0.00 80 1008.2
20260506094338 16 5 8.0 12.9 0.00 0.00 0.00 80 1007.9
20260506093835 16 12 3.2 9.7 0.00 0.00 0.00 80 1008.0
20260506093332 16 16 3.2 11.3 0.00 0.00 0.00 80 1008.2
20260506092830 16 326 4.8 11.3 0.00 0.00 0.00 80 1007.9
20260506092327 16 330 4.8 11.3 0.00 0.00 0.00 80 1007.7
20260506091824 16 5 6.4 14.5 0.00 0.00 0.00 81 1008.1
20260506091322 16 348 6.4 11.3 0.00 0.00 0.00 81 1008.2
20260506090819 16 14 8.0 11.3 0.00 0.00 0.00 81 1007.9
20260506090317 16 1 6.4 14.5 0.00 0.00 0.00 81 1007.9
20260506085813 16 0 6.4 8.0 0.00 0.00 0.00 81 1007.9
20260506085309 17 353 4.8 12.9 0.00 0.00 0.00 82 1007.9
20260506084806 17 7 0.0 8.0 0.00 0.00 0.00 81 1007.7
20260506084302 17 3 4.8 14.5 0.00 0.00 0.00 82 1007.5
20260506083759 17 4 1.6 9.7 0.00 0.00 0.00 82 1007.8
20260506083257 17 11 6.4 14.5 0.00 0.00 0.00 82 1007.7
20260506082754 17 358 6.4 14.5 0.00 0.00 0.00 82 1007.7
20260506082250 17 12 9.7 16.1 0.00 0.00 0.00 82 1007.4
20260506081747 17 4 1.6 11.3 0.00 0.00 0.00 82 1007.8
20260506081245 17 348 1.6 8.0 0.00 0.00 0.00 82 1007.7
20260506080743 17 4 6.4 12.9 0.00 0.00 0.00 82 1007.7
20260506080239 17 10 9.7 11.3 0.00 0.00 0.00 82 1007.2
20260506073223 17 4 8.0 17.7 0.00 0.00 0.00 82 1007.2
20260506072720 17 28 9.7 17.7 0.00 0.00 0.00 81 1007.3
20260506072217 17 28 4.8 14.5 0.00 0.00 0.00 81 1007.5
20260506071715 17 7 4.8 20.9 0.00 0.00 0.00 81 1007.3
20260506071213 17 24 6.4 19.3 0.00 0.00 0.00 81 1007.3
20260506070709 17 21 12.9 25.7 0.00 0.00 0.00 81 1007.3
20260506070206 17 36 6.4 19.3 0.00 0.00 0.00 81 1007.3
20260506062143 18 6 8.0 22.5 0.00 0.00 0.00 80 1007.1
20260506061639 18 347 8.0 22.5 0.00 0.00 0.00 79 1007.3
20260506061137 18 1 9.7 24.1 0.00 0.00 0.00 79 1007.2
20260506060635 18 10 8.0 17.7 0.00 0.00 0.00 79 1007.1
20260506060132 18 13 8.0 16.1 0.00 0.00 0.00 79 1007.3
20260506051104 20 1 12.9 24.1 0.00 0.00 0.00 77 1007.0
20260506050602 20 12 4.8 14.5 0.00 0.00 0.00 77 1007.0
20260506045052 20 0 8.0 12.9 0.00 0.00 0.00 76 1007.1
20260506044550 20 0 6.4 16.1 0.00 0.00 0.00 76 1006.9
20260506044046 20 347 6.4 17.7 0.00 0.00 0.00 75 1007.1
20260506043543 20 343 4.8 16.1 0.00 0.00 0.00 75 1007.0
20260506043042 21 4 6.4 12.9 0.00 0.00 0.00 74 1007.2
20260506042541 21 259 1.6 17.7 0.00 0.00 0.00 73 1007.0
20260506042038 21 353 6.4 16.1 0.00 0.00 0.00 73 1006.9
20260506041537 21 8 6.4 16.1 0.00 0.00 0.00 73 1007.0
20260506041033 21 354 9.7 22.5 0.00 0.00 0.00 74 1006.9
20260506040531 21 359 9.7 14.5 0.00 0.00 0.00 74 1006.8
20260506040027 21 359 6.4 17.7 0.00 0.00 0.00 74 1006.8
20260506035524 21 356 9.7 17.7 0.00 0.00 0.00 74 1006.5
20260506035021 21 1 8.0 27.4 0.00 0.00 0.00 74 1006.8
20260506034518 21 358 14.5 24.1 0.00 0.00 0.00 73 1006.5
20260506034015 22 12 6.4 17.7 0.00 0.00 0.00 73 1006.4
20260506033512 22 6 8.0 17.7 0.00 0.00 0.00 73 1006.4
20260506033009 22 348 8.0 20.9 0.00 0.00 0.00 73 1005.9
20260506032507 22 12 11.3 25.7 0.00 0.00 0.00 72 1005.9
20260506032003 22 28 4.8 20.9 0.00 0.00 0.00 73 1005.9
20260506031501 22 23 17.7 22.5 0.00 0.00 0.00 72 1005.7
20260506030958 22 11 6.4 16.1 0.00 0.00 0.00 73 1005.5
20260506030456 23 358 4.8 20.9 0.00 0.00 0.00 72 1005.5
20260506025952 23 0 9.7 17.7 0.00 0.00 0.00 72 1005.4
20260506025449 23 63 8.0 16.1 0.00 0.00 0.00 72 1005.7
20260506024946 23 3 8.0 22.5 0.00 0.00 0.00 71 1005.9
20260506024443 23 351 11.3 17.7 0.00 0.00 0.00 70 1005.5
20260506023938 23 5 9.7 20.9 0.00 0.00 0.00 70 1005.2
20260506023436 23 359 8.0 12.9 0.00 0.00 0.00 70 1004.9
20260506022932 24 357 8.0 20.9 0.00 0.00 0.00 69 1005.2
20260506022430 24 311 6.4 11.3 0.00 0.00 0.00 69 1005.0
20260506021928 25 348 11.3 22.5 0.00 0.00 0.00 68 1004.9
20260506021425 25 359 6.4 14.5 0.00 0.00 0.00 68 1004.8
20260506020922 25 356 6.4 12.9 0.00 0.00 0.00 68 1004.5
20260506020420 25 1 8.0 17.7 0.00 0.00 0.00 68 1004.4
20260506015916 25 356 8.0 14.5 0.00 0.00 0.00 67 1004.3
20260506015414 25 357 6.4 14.5 0.00 0.00 0.00 67 1004.0
20260506014911 25 15 6.4 11.3 0.00 0.00 0.00 67 1003.7
20260506014408 25 358 11.3 20.9 0.00 0.00 0.00 66 1003.9
20260506013904 26 19 8.0 19.3 0.00 0.00 0.00 66 1003.5
20260506013402 26 15 8.0 11.3 0.00 0.00 0.00 67 1003.8
20260506012858 26 354 3.2 9.7 0.00 0.00 0.00 66 1003.7
20260506012355 26 3 3.2 8.0 0.00 0.00 0.00 67 1003.3
20260506011852 26 356 3.2 12.9 0.00 0.00 0.00 65 1003.2
20260506011349 26 332 4.8 16.1 0.00 0.00 0.00 65 1003.3
20260506010846 26 332 1.6 6.4 0.00 0.00 0.00 65 1003.7
20260506010344 26 323 1.6 8.0 0.00 0.00 0.00 65 1003.4
20260506005841 26 294 3.2 8.0 0.00 0.00 0.00 66 1003.2
20260506005338 26 8 6.4 9.7 0.00 0.00 0.00 66 1003.0
20260506004833 26 7 8.0 12.9 0.00 0.00 0.00 66 1002.7
20260506004331 26 355 3.2 8.0 0.00 0.00 0.00 66 1002.9
20260506003827 26 322 4.8 8.0 0.00 0.00 0.00 66 1002.9
20260506003324 26 346 6.4 12.9 0.00 0.00 0.00 65 1002.9
20260506002820 27 330 4.8 12.9 0.00 0.00 0.00 65 1002.9
20260506002317 28 299 4.8 6.4 0.00 0.00 0.00 65 1002.8
20260506001812 28 309 3.2 14.5 0.00 0.00 0.00 64 1003.0
20260506001310 29 296 8.0 12.9 0.00 0.00 0.00 71 1002.7
20260506000807 29 311 4.8 4.8 0.00 0.00 0.00 76 1002.7
20260506000304 29 173 3.2 14.5 0.00 0.00 0.00 75 1002.6
20260505235801 29 156 9.7 11.3 0.00 0.00 0.00 75 1002.3
20260505235259 30 194 6.4 19.3 0.00 0.00 0.00 74 1002.2
20260505234755 30 192 1.6 12.9 0.00 0.00 0.00 74 1002.4
20260505234253 30 163 3.2 16.1 0.00 0.00 0.00 74 1002.2
20260505233749 30 128 6.4 20.9 0.00 0.00 0.00 73 1002.3
20260505233247 30 171 6.4 14.5 0.00 0.00 0.00 73 1002.0
20260505232745 30 180 8.0 19.3 0.00 0.00 0.00 72 1002.2
20260505232242 30 163 8.0 20.9 0.00 0.00 0.00 72 1001.9
20260505231738 30 200 4.8 19.3 0.00 0.00 0.00 71 1001.9
20260505231237 30 176 16.1 24.1 0.00 0.00 0.00 72 1002.0
20260505230735 30 166 11.3 25.7 0.00 0.00 0.00 71 1002.0
20260505230231 31 152 14.5 16.1 0.00 0.00 0.00 70 1001.7
20260505225728 31 151 3.2 16.1 0.00 0.00 0.00 69 1001.9
20260505225225 31 176 4.8 8.0 0.00 0.00 0.00 63 1001.9
20260505224720 31 166 6.4 14.5 0.00 0.00 0.00 62 1001.9
20260505224218 32 169 8.0 12.9 0.00 0.00 0.00 59 1001.8
20260505223716 32 167 3.2 11.3 0.00 0.00 0.00 59 1001.7
20260505223212 32 199 8.0 12.9 0.00 0.00 0.00 56 1001.7
20260505222708 32 217 8.0 19.3 0.00 0.00 0.00 56 1001.7
20260505222203 32 213 6.4 14.5 0.00 0.00 0.00 58 1001.5
20260505221702 32 183 3.2 11.3 0.00 0.00 0.00 59 1001.6
20260505221158 32 181 6.4 16.1 0.00 0.00 0.00 58 1001.6
20260505220655 32 172 3.2 14.5 0.00 0.00 0.00 59 1001.8
20260505220153 31 183 8.0 17.7 0.00 0.00 0.00 58 1001.7
20260505215650 32 178 3.2 11.3 0.00 0.00 0.00 58 1001.7
20260505215148 33 184 6.4 14.5 0.00 0.00 0.00 58 1001.7
20260505214646 32 169 9.7 16.1 0.00 0.00 0.00 57 1001.6
20260505214143 32 259 0.0 14.5 0.00 0.00 0.00 58 1001.7
20260505213640 33 208 6.4 14.5 0.00 0.00 0.00 55 1001.9
20260505213137 33 254 0.0 11.3 0.00 0.00 0.00 56 1001.5
20260505212632 32 271 4.8 16.1 0.00 0.00 0.00 57 1001.8
20260505212131 32 177 11.3 20.9 0.00 0.00 0.00 55 1001.7
20260505211627 32 209 8.0 17.7 0.00 0.00 0.00 56 1002.0
20260505211124 32 193 9.7 19.3 0.00 0.00 0.00 54 1002.1
20260505210621 33 247 6.4 12.9 0.00 0.00 0.00 53 1001.7
20260505210118 33 211 8.0 14.5 0.00 0.00 0.00 55 1002.1
20260505205615 32 238 6.4 17.7 0.00 0.00 0.00 54 1002.2
20260505205113 32 250 9.7 19.3 0.00 0.00 0.00 56 1002.2
20260505204610 32 220 11.3 24.1 0.00 0.00 0.00 55 1002.2
20260505204108 32 177 6.4 17.7 0.00 0.00 0.00 58 1002.4
20260505203604 32 238 6.4 20.9 0.00 0.00 0.00 57 1002.3
20260505203101 32 237 6.4 14.5 0.00 0.00 0.00 57 1002.2
20260505202557 32 240 6.4 27.4 0.00 0.00 0.00 58 1002.6
20260505202053 32 241 8.0 19.3 0.00 0.00 0.00 56 1002.5
20260505201550 32 217 9.7 17.7 0.00 0.00 0.00 56 1002.6
20260505201048 32 194 6.4 16.1 0.00 0.00 0.00 57 1002.5
20260505200545 32 224 8.0 19.3 0.00 0.00 0.00 55 1002.7
20260505200042 32 241 6.4 19.3 0.00 0.00 0.00 59 1002.5
20260505195538 31 202 8.0 25.7 0.00 0.00 0.00 59 1002.6
20260505195036 31 223 6.4 25.7 0.00 0.00 0.00 58 1002.8
20260505194533 31 202 4.8 19.3 0.00 0.00 0.00 60 1002.6
20260505194028 31 225 11.3 17.7 0.00 0.00 0.00 60 1002.6
20260505193526 31 240 4.8 27.4 0.00 0.00 0.00 60 1003.0
20260505193023 31 187 8.0 24.1 0.00 0.00 0.00 62 1003.0
20260505192521 31 208 14.5 19.3 0.00 0.00 0.00 61 1003.0
20260505192018 31 188 16.1 19.3 0.00 0.00 0.00 63 1002.9
20260505191517 31 243 8.0 24.1 0.00 0.00 0.00 62 1003.0
20260505191015 30 182 8.0 14.5 0.00 0.00 0.00 65 1002.9
20260505190509 30 233 9.7 22.5 0.00 0.00 0.00 65 1002.8
20260505190005 30 194 4.8 24.1 0.00 0.00 0.00 65 1003.2
20260505185502 30 252 14.5 24.1 0.00 0.00 0.00 66 1003.2
20260505184958 30 221 12.9 22.5 0.00 0.00 0.00 66 1003.3
20260505184455 30 217 14.5 27.4 0.00 0.00 0.00 66 1003.4
20260505183952 30 225 9.7 16.1 0.00 0.00 0.00 68 1003.2
20260505183449 30 234 17.7 19.3 0.00 0.00 0.00 67 1003.3
20260505182945 29 229 11.3 20.9 0.00 0.00 0.00 69 1003.3
20260505182442 30 180 8.0 17.7 0.00 0.00 0.00 67 1003.7
20260505181938 29 234 14.5 25.7 0.00 0.00 0.00 68 1003.5
20260505181436 29 217 11.3 20.9 0.00 0.00 0.00 70 1003.7
20260505180933 28 238 9.7 20.9 0.00 0.00 0.00 71 1003.5
20260505180429 28 228 9.7 20.9 0.00 0.00 0.00 70 1003.3
20260505175926 29 232 6.4 20.9 0.00 0.00 0.00 70 1003.4
20260505175422 29 233 4.8 19.3 0.00 0.00 0.00 71 1003.4
20260505174918 28 206 11.3 22.5 0.00 0.00 0.00 71 1003.5
20260505174416 28 219 12.9 29.0 0.00 0.00 0.00 70 1003.7
20260505173912 28 224 22.5 27.4 0.00 0.00 0.00 71 1003.7
20260505173408 27 218 14.5 27.4 0.00 0.00 0.00 73 1003.4
20260505172905 27 222 16.1 29.0 0.00 0.00 0.00 73 1003.5
20260505172403 27 197 12.9 24.1 0.00 0.00 0.00 73 1003.5
20260505171903 28 196 9.7 20.9 0.00 0.00 0.00 73 1003.5
20260505171400 27 207 17.7 38.6 0.00 0.00 0.00 73 1003.4
20260505170856 28 231 24.1 27.4 0.00 0.00 0.00 73 1003.2
20260505170354 27 230 6.4 33.8 0.00 0.00 0.00 74 1003.4
20260505165848 27 215 6.4 30.6 0.00 0.00 0.00 75 1003.2
20260505165344 27 215 6.4 27.4 0.00 0.00 0.00 75 1003.4
20260505164840 27 194 14.5 33.8 0.00 0.00 0.00 76 1003.2
20260505164337 27 201 8.0 22.5 0.00 0.00 0.00 76 1003.3
20260505163836 27 215 4.8 43.5 0.00 0.00 0.00 76 1003.3
20260505163334 27 207 11.3 32.2 0.00 0.00 0.00 76 1003.3
20260505162832 27 207 14.5 25.7 0.00 0.00 0.00 76 1003.2
20260505162328 27 189 12.9 25.7 0.00 0.00 0.00 76 1003.7
20260505161825 27 168 17.7 30.6 0.00 0.00 0.00 77 1003.7
20260505161322 26 186 17.7 20.9 0.00 0.00 0.00 77 1003.7
20260505160819 26 219 8.0 25.7 0.00 0.00 0.00 77 1003.5
20260505160318 26 228 14.5 29.0 0.00 0.00 0.00 78 1003.4
20260505153256 26 207 6.4 35.4 0.00 0.00 0.00 79 1003.5
20260505152753 26 215 16.1 33.8 0.00 0.00 0.00 80 1003.5
20260505152250 26 208 17.7 24.1 0.00 0.00 0.00 80 1003.3
20260505151744 25 219 6.4 38.6 0.00 0.00 0.00 81 1003.4
20260505151242 25 216 11.3 24.1 0.00 0.00 0.00 81 1003.4
20260505150738 25 209 6.4 22.5 0.00 0.00 0.00 81 1003.7
20260505150236 25 218 8.0 33.8 0.00 0.00 0.00 83 1003.8